Other Surface Observations
Issued by NWS Upton, NY

Home | Current Version | Previous Version | Text Only | Print | Product List | Glossary On
Versions: 1 2 3 4 5 6 7 8 9 10 11 12 13 14 15 16 17 18 19 20 21 22 23 24 25 26 27 28 29 30 31 32 33 34 35 36 37 38 39 40 41 42 43 44 45 46 47 48 49 50
000
SXUS51 KOKX 230059
OSOOKX
New York City Metropolitan Area Weather Roundup
National Weather Service New York NY
800 PM EST THU FEB 22 2018

CITY           SKY/WX    TMP DP  RH WIND       PRES   REMARKS
Central Park   CLOUDY    38  34  85 NE10      30.64F WCI  31
LaGuardia Arpt CLOUDY    39  34  82 E13       30.62F WCI  31
Kennedy Intl   CLOUDY    38  36  92 NE13      30.63F WCI  30
Newark Liberty CLOUDY    40  36  86 E9        30.61F WCI  34
Teterboro Arpt CLOUDY    39  35  86 NE5G20    30.62F
Bronx Bot Gard   N/A     37  34  87 E7        30.62F WCI  32
Bronx Lehman C NOT AVBL
Queens College NOT AVBL
Breezy Point   NOT AVBL
Brooklyn Coll  NOT AVBL
Staten Island  NOT AVBL

>>>>>>>>>>>>>>>>>>>>>>>>>>>>>>>>> KEY <<<<<<<<<<<<<<<<<<<<<<<<<<<<<<<
> SKY/WX - Sky Condition/Present    : R : WCI - Wind Chill Index    <
>          Weather                  : E : VSB - Visibility in Miles <
> TMP    - Temperature in Deg F     : M : HX  - Heat Index          <
> DP     - Dew Point Temperature    : A : TC  - Temperature in      <
> RH     - Relative Humidity        : R :       Celsius             <
> WIND   - Direction/Speed (mph)    : K : VRB - Variable Wind Dir   <
> PRES   - Pressure (in Hg)         : S :                           <
>>>>>>>>>>>>>>>>>>>>>>>>>>>>>>>>> KEY <<<<<<<<<<<<<<<<<<<<<<<<<<<<<<<




USA.gov is the U.S. government's official web portal to all federal, state and local government web resources and services.